SCP
0 0 -0 -0 -0 -0 -0 -0 -0 -0 -0 -0 -0 0 0 0 -0 0 0 -0 -0 -0 -0 -0 0 0 0 0 0 0 0 0 0 0 0 0 0 0 0 0 0 0 0 0 0 0 0
-0 -0 -0 -0 -0 -0 -0 0 0 -0 -0 0 0 0 0 0 0 -0 -0 -0 0 -0 -0 0 0 0 0 0 0 0 0 0 0 0 0 0 0 0 0 0 0 0 0 0 0 0 0
-0 0 0 0 0 0 0 0 0 0 0 0 0 0 0 0 -0 -0 -0 -0 -0 0 0 0 0 0 0 0 0 0 0 0 0 0 0 0 0 0 0 0 0 0 0 0 0 0 0
0 0 0 0 0 0 0 0 0 0 0 0 0 0 -0 -0 -0 -0 -0 -0 -0 0 0 0 0 0 0 0 0 0 0 0 0 0 0 0 0 0 0 0 0 0 0 0 0 0 0
0 0 0 0 0 0 0 0 0 0 0 0 -0 -0 -0 -0 -0 -0 -0 -0 0 0 0 0 0 0 0 0 0 0 0 0 0 0 0 0 0 0 0 0 0 0 0 0 0 0 0
0 0 0 0 0 0 0 0 -0 -0 -0 -0 -0 -0 -0 -0 -0 -0 -0 0 0 0 0 0 0 0 0 0 0 0 0 0 0 0 0 0 0 0 0 0 0 0 0 0 0 0 0
0 0 0 0 0 0 0 -0 -0 -0 -0 -0 -0 -0 -0 -0 -0 -0 0 0 0 0 0 0 0 0 0 0 0 0 0 0 0 0 0 0 0 0 0 0 0 0 0 0 0 0 0
0 0 0 0 0 -0 -0 -0 -0 -0 -0 -0 -0 -0 -0 -0 0 0 0 0 0 0 0 0 0 0 0 0 0 0 0 0 0 0 0 0 0 0 0 0 0 0 0 0 0 0 0
0 0 0 0 -0 -0 -0 -0 -0 -0 -0 -0 -0 0 0 0 0 0 0 0 0 0 0 0 0 0 0 0 0 0 0 0 0 0 0 0 0 0 0 0 0 0 0 0 0 0 0
0 0 0 0 0 -0 -0 -0 -0 -0 -0 -0 0 0 0 0 0 0 0 0 0 0 0 0 0 0 0 0 0 0 0 0 0 0 0 0 0 0 0 0 0 0 0 0 0 0 0
0 0 0 0 0 0 -0 -0 -0 -0 0 0 0 0 0 0 0 0 0 0 0 0 0 0 0 0 0 0 0 0 0 0 0 0 0 0 0 0 0 0 0 0 0 0 0 0 0
0 0 0 0 0 0 0 0 0 0 0 0 0 0 0 0 0 0 0 0 0 0 0 0 0 0 0 0 0 0 0 0 0 0 0 0 0 0 0 0 0 0 0 0 0 0 0
0 0 0 0 0 0 0 0 0 0 0 0 0 0 0 0 0 0 0 0 0 0 0 0 0 0 0 0 0 0 0 0 0 0 0 0 0 0 0 0 0 0 0 0 0 0 0
0 0 0 0 0 0 0 0 0 0 0 0 0 0 0 0 0 0 0 0 0 0 0 0 0 0 0 0 0 0 0 0 0 0 0 0 0 0 0 0 0 0 0 0 0 0 0
0 0 0 0 0 0 0 0 0 0 0 0 0 0 0 0 0 0 0 0 0 0 0 0 0 0 0 0 0 0 0 0 0 0 0 0 0 0 0 0 0 0 0 0 0 0 0
0 0 0 0 0 0 0 0 0 0 0 0 0 0 0 0 0 0 0 0 0 0 0 0 0 0 0 0 0 0 0 0 0 0 0 0 0 0 0 0 0 0 0 0 0 0 0
0 0 0 0 0 0 0 0 0 0 0 0 0 0 0 0 0 0 0 0 0 0 0 0 0 0 0 0 0 0 0 0 0 0 0 0 0 0 0 0 0 0 0 0 0 0 0
0 0 0 0 0 0 0 0 0 0 0 0 0 0 0 0 0 0 0 0 0 0 0 0 0 0 0 0 0 0 0 0 0 0 0 0 0 0 0 0 0 0 0 0 0 0 0
0 0 0 0 0 0 0 0 0 0 0 0 0 0 0 0 0 0 0 0 0 0 0 0 0 0 0 0 0 0 0 0 0 0 0 0 0 0 0 0 0 0 0 0 0 0 0
0 0 0 0 0 0 0 0 0 0 0 0 0 0 0 0 0 0 0 0 0 0 0 0 0 0 0 0 0 0 0 0 0 0 0 0 0 0 0 0 0 0 0 0 0 0 0
0 0 0 0 0 0 0 0 0 0 0 0 0 0 0 0 0 0 0 0 0 0 0 0 0 0 0 0 0 0 0 0 0 0 0 0 0 0 0 0 0 0 0 -0 0 0 0
0 0 0 0 0 0 0 0 0 0 0 0 0 0 0 0 0 0 0 0 0 0 0 0 0 0 0 0 0 0 0 0 0 0 0 0 0 0 0 0 0 0 0 0 0 0 0
0 0 0 0 0 0 0 0 0 0 0 -0 -0 0 0 0 0 0 0 0 0 0 0 0 0 0 0 0 0 0 0 0 0 0 0 0 0 0 0 0 0 0 0 0 0 0 0
0 0 0 0 0 0 0 0 0 0 0 -0 -0 0 0 0 0 0 0 0 0 0 0 0 0 0 0 0 0 0 0 0 0 0 0 0 0 0 0 0 0 0 0 0 0 0 0
0 0 0 0 0 0 0 0 0 0 0 0 0 0 0 0 0 0 0 0 0 0 0 0 0 0 0 0 0 0 0 0 0 0 0 0 0 0 0 0 0 0 0 0 0 0 0
0 0 0 0 0 0 0 0 0 0 0 0 0 0 0 -0 -0 0 0 0 0 0 0 0 0 0 0 0 0 0 0 0 0 0 0 -0 -0 0 0 0 0 0 0 0 0 0 0
0 0 0 0 0 0 0 0 0 0 0 0 0 0 0 -0 -0 0 0 0 0 0 0 0 0 0 0 0 0 0 0 0 0 0 0 0 0 0 0 0 0 0 0 0 0 0 0
0 0 0 0 0 0 0 0 0 0 0 0 0 0 0 0 0 0 0 0 0 0 0 0 0 0 0 0 0 0 0 0 0 0 -0 -0 0 0 0 0 0 0 -0 -0 0 0 0
0 0 0 0 0 0 0 0 0 0 0 0 0 0 0 0 0 0 0 0 0 0 0 0 0 0 0 0 0 0 0 0 0 0 0 0 0 -0 -0 -0 0 -0 -0 -0 -0 -0 -0
Wind_Speed_500mb
12 10 8 10 12 13 14 14 15 16 18 19 21 22 24 26 27 29 29 25 27 28 29 22 18 15 15 9 11 12 9 8 9 10 9 9 8 5 2 7 8 6 5 10 17 28 36
9 7 9 9 9 10 12 14 16 18 20 21 23 25 27 28 30 31 31 29 32 34 27 22 16 14 10 6 7 8 10 10 9 10 9 6 5 5 3 4 0 8 19 32 27 20 16
3 5 6 9 12 14 16 19 20 22 23 24 25 27 29 31 32 33 35 33 35 35 25 23 13 11 13 14 9 8 10 11 11 12 8 6 5 3 3 7 7 7 11 15 12 9 10
3 5 9 13 16 19 21 22 24 26 28 29 30 31 31 32 33 33 34 34 36 32 29 17 8 10 8 11 14 16 15 14 12 7 7 7 9 4 4 10 7 4 3 6 6 12 4
9 12 15 18 21 23 25 26 29 31 32 33 33 33 33 33 34 35 36 35 34 27 21 8 11 9 7 8 11 11 16 11 8 7 4 6 2 4 4 4 7 4 7 9 14 19 6
14 16 18 21 23 26 28 30 32 34 35 36 36 35 35 35 33 34 32 35 28 23 6 9 10 8 7 4 5 6 10 12 7 8 8 2 3 4 3 5 9 10 8 10 12 5 8
14 16 18 20 23 26 28 30 33 35 36 37 37 37 34 33 31 31 28 24 13 6 9 21 22 15 9 9 7 6 10 12 11 3 2 2 4 15 19 17 7 5 7 13 9 11 11
17 19 21 23 25 27 29 31 32 34 36 36 37 37 32 30 26 22 16 8 11 16 18 22 18 29 27 10 5 9 14 8 5 6 3 5 14 14 8 11 12 11 7 17 14 8 11
18 20 22 23 25 28 31 32 33 34 36 37 35 34 33 26 21 8 10 10 13 20 10 5 2 2 1 15 8 8 18 6 9 6 11 12 11 8 7 6 7 9 12 10 15 7 9
19 19 21 22 25 28 30 30 31 32 33 34 33 35 32 20 7 9 5 11 14 14 8 6 2 1 3 5 2 10 19 6 6 10 8 12 11 12 13 18 17 12 15 15 8 4 8
17 19 21 23 25 27 28 27 28 30 31 34 33 31 31 18 9 4 7 10 14 6 8 3 2 5 4 4 2 8 20 11 9 6 6 16 5 11 13 17 16 19 8 12 8 8 4
17 19 21 23 24 25 26 26 26 27 29 31 31 28 24 15 6 3 3 6 4 11 9 2 2 3 3 6 5 10 9 16 6 6 7 17 10 8 15 9 14 3 4 4 7 7 3
15 18 20 21 21 21 23 25 27 29 32 32 30 25 22 18 9 4 2 2 10 9 8 10 5 4 5 8 7 12 9 7 9 4 6 9 9 8 7 2 2 5 7 5 6 1 13
14 16 20 20 19 22 25 28 31 33 32 31 25 17 19 20 12 1 5 9 4 7 5 7 11 14 11 7 7 6 5 7 14 6 2 5 20 10 5 12 9 11 13 9 11 6 8
10 15 17 20 25 27 29 30 32 34 34 31 22 11 24 23 12 5 5 7 8 1 6 14 17 8 8 5 8 9 9 9 8 16 14 8 14 4 9 6 10 5 9 5 4 4 5
12 14 20 21 25 29 32 33 33 34 34 29 17 6 29 21 10 4 8 4 3 8 9 7 4 3 6 12 14 14 6 3 5 3 2 9 10 10 6 3 8 10 3 1 2 6 13
13 16 21 26 28 30 32 35 36 33 33 28 12 6 23 13 6 4 6 6 4 9 16 8 6 10 8 9 9 8 11 7 12 14 9 4 8 13 4 12 14 2 6 8 4 8 8
12 18 24 29 31 33 35 36 37 35 30 25 5 5 19 12 6 5 3 8 11 7 14 7 9 6 5 10 10 9 12 7 36 16 12 4 6 11 20 11 8 8 14 14 7 9 7
11 18 26 30 33 34 34 35 35 35 34 26 8 6 16 14 6 5 11 11 8 14 12 10 8 9 7 7 10 7 9 18 52 24 13 11 6 8 16 9 5 6 7 7 1 6 10
13 21 27 29 32 36 37 37 35 31 25 14 6 5 14 21 18 8 6 7 12 25 9 18 9 14 13 9 7 12 15 9 49 41 52 17 7 13 21 8 6 15 11 14 5 4 6
13 19 24 27 31 35 38 39 36 31 20 9 10 6 6 6 12 10 8 10 11 16 21 27 7 18 16 9 13 9 13 26 21 36 23 13 11 11 16 15 11 24 26 21 18 13 17
12 18 21 26 30 34 39 44 47 37 23 20 10 9 8 10 13 7 18 12 14 12 5 6 14 19 10 11 21 36 20 6 14 7 16 13 12 22 31 15 19 31 27 26 25 21 26
12 17 21 25 29 32 37 41 45 48 38 21 16 11 4 14 7 5 3 7 8 16 13 20 26 17 11 16 28 45 51 53 47 43 39 17 8 6 25 7 17 18 14 12 22 26 7
11 14 16 22 24 26 30 33 35 39 43 37 28 15 7 2 5 2 4 9 7 16 12 26 30 13 24 53 57 46 55 62 57 46 48 25 18 13 12 6 13 13 23 31 32 26 28
6 10 15 19 21 24 25 24 25 26 28 28 28 21 6 1 3 5 16 7 25 29 11 19 13 42 39 26 8 12 11 9 9 5 18 20 22 11 8 16 7 8 21 16 12 19 27
6 9 14 17 21 24 23 20 22 20 21 20 23 21 9 2 10 1 5 6 5 5 12 14 47 36 34 7 4 8 7 7 11 21 14 24 10 11 2 10 12 12 19 49 18 8 35
6 9 12 15 15 20 17 17 18 18 19 20 18 15 10 5 4 4 5 9 8 5 6 18 19 22 10 3 6 5 6 4 7 11 13 11 8 8 12 7 10 19 28 15 1 7 36
7 8 9 11 13 14 14 17 19 18 16 20 15 12 9 7 24 6 17 21 19 17 5 17 17 5 7 3 4 7 3 5 6 9 8 8 9 6 6 9 4 50 14 11 12 29 38
7 7 10 12 10 10 4 10 17 17 14 21 21 17 15 13 18 37 13 6 17 28 28 10 9 15 9 3 4 5 7 4 4 4 10 3 8 6 3 4 22 32 29 21 32 34 37
Wind_Direction_500mb
87 77 60 41 31 26 19 15 8 7 2 2 358 355 353 351 352 351 348 342 339 334 324 314 304 296 294 275 261 251 263 285 316 332 349 12 47 22 24 324 328 199 278 277 265 276 280
81 61 44 33 19 6 360 356 355 352 352 350 348 347 345 345 345 345 344 337 333 332 326 318 294 282 269 251 254 255 254 271 302 335 343 7 33 358 313 284 263 317 294 287 291 269 252
66 48 17 359 352 348 349 349 347 345 342 342 341 342 341 341 340 341 338 335 330 329 319 312 291 276 267 255 242 247 248 265 290 315 311 316 324 311 289 302 304 290 316 319 234 253 234
12 360 356 350 346 345 347 345 341 338 337 337 336 336 336 334 335 335 334 333 327 323 319 303 275 284 248 254 252 245 256 250 263 291 306 300 301 269 228 309 314 307 75 344 274 154 231
1 356 349 346 345 341 340 339 336 334 333 330 329 327 326 327 330 332 333 327 323 315 312 278 292 279 277 249 252 256 249 251 256 310 322 297 251 154 149 81 357 338 249 223 303 202 132
9 358 350 344 338 337 335 336 334 331 328 326 326 325 323 323 324 325 331 328 320 311 295 300 280 301 259 295 261 269 211 219 270 300 312 200 102 90 37 115 226 214 231 250 233 237 196
357 345 341 338 337 334 334 334 331 329 329 328 328 327 328 322 322 325 335 340 336 304 304 261 282 275 260 261 266 244 222 228 241 253 278 240 50 222 214 205 209 227 221 245 249 232 208
345 337 334 336 333 332 332 332 331 329 328 326 326 324 325 327 324 325 347 14 1 308 304 298 296 262 242 245 273 231 218 202 180 237 152 17 243 242 234 215 223 234 262 265 280 241 185
336 332 334 332 334 334 335 336 333 332 331 334 336 330 325 316 316 323 2 26 342 335 301 323 3 6 234 226 237 241 199 204 197 225 201 185 234 58 183 227 218 225 216 249 230 327 271
328 336 338 340 340 340 339 342 343 344 343 343 347 343 345 329 306 318 317 339 341 347 44 272 184 123 164 149 206 226 199 216 242 236 215 233 267 220 227 253 177 257 213 230 227 67 245
341 342 346 347 346 345 345 349 350 349 348 345 347 347 345 351 302 269 300 324 335 356 19 291 163 158 174 200 183 207 191 211 230 225 120 251 245 222 221 227 166 235 169 199 192 193 41
347 349 350 349 349 348 351 354 354 351 347 348 348 350 352 354 350 293 303 330 352 44 263 326 68 357 303 208 225 165 193 222 272 283 225 246 283 214 222 228 200 113 274 67 58 114 267
346 346 347 345 352 355 357 355 353 354 351 350 349 357 3 359 342 272 265 33 37 126 290 342 351 338 312 232 233 181 175 186 204 349 274 311 231 249 190 253 230 160 85 300 321 345 234
349 349 340 353 359 4 4 1 358 353 351 346 346 4 10 6 3 78 145 58 143 278 346 358 337 302 229 357 251 191 197 244 235 209 304 209 310 187 176 199 201 189 183 179 236 210 256
354 346 351 1 8 6 6 2 358 353 350 346 342 352 14 11 6 135 115 71 220 292 333 347 330 337 307 3 5 359 221 230 234 172 185 191 265 244 206 238 156 198 191 217 166 90 49
348 358 7 14 13 9 2 1 360 358 352 348 343 15 13 3 21 121 75 239 320 30 348 3 269 336 303 335 348 352 300 286 296 91 166 261 277 216 244 240 243 193 190 104 347 207 247
3 11 15 14 11 11 3 358 360 0 355 350 350 55 5 11 49 40 116 225 326 13 13 352 300 300 291 314 250 253 261 319 3 314 326 290 184 277 110 198 207 169 242 225 184 160 210
17 20 15 13 8 9 6 358 356 356 2 356 21 58 4 357 78 45 67 331 339 357 18 328 334 308 318 332 289 267 246 345 360 322 323 344 257 247 234 248 251 218 219 185 182 219 242
20 21 14 10 8 9 5 3 358 358 1 3 26 358 10 8 80 22 337 344 354 9 18 347 320 33 360 295 313 275 332 23 5 358 14 334 299 314 315 354 308 237 241 220 181 27 202
25 15 15 11 6 6 4 6 4 6 2 22 28 30 29 58 62 85 23 323 343 16 82 351 312 34 355 329 300 307 326 348 339 343 327 309 240 212 256 260 20 292 299 328 294 208 245
19 16 20 13 10 10 10 11 18 20 24 55 58 71 22 353 3 30 8 14 23 15 358 9 30 40 3 300 313 262 330 322 314 312 340 2 263 220 265 279 271 274 285 286 229 235 228
27 27 27 22 19 19 21 21 22 32 37 64 66 43 44 27 359 54 7 22 15 351 297 347 4 331 312 286 284 293 281 250 258 311 339 321 274 328 292 277 270 276 273 261 257 251 251
48 39 29 26 23 20 22 25 25 30 36 72 77 71 97 22 11 56 66 326 335 344 310 3 334 320 309 316 309 298 286 273 259 261 262 250 272 292 270 332 341 298 326 290 72 36 10
55 40 23 17 15 17 19 23 29 34 42 58 61 63 63 43 70 98 297 319 330 335 294 303 302 290 316 315 307 288 283 266 265 262 249 240 214 221 272 231 236 137 42 63 77 45 28
53 15 8 13 19 20 19 20 26 30 40 46 62 68 68 137 288 320 333 324 329 338 308 294 332 313 322 328 301 304 288 318 325 84 33 253 231 245 219 203 262 55 358 340 318 46 11
17 7 16 24 21 16 18 28 23 28 28 34 47 52 102 155 227 243 287 280 279 298 311 286 316 319 313 261 255 270 302 291 307 334 354 24 209 224 225 225 222 355 318 328 166 70 20
42 32 32 28 6 6 22 35 19 19 13 24 32 34 71 280 267 180 271 270 274 258 256 290 325 330 354 296 283 260 265 303 298 326 335 355 11 311 286 287 114 338 349 356 26 37 354
48 32 14 1 359 2 27 8 3 5 10 352 15 26 16 265 298 232 308 283 273 263 219 303 335 325 322 333 316 352 267 286 331 291 320 18 352 11 351 303 245 2 25 53 350 344 341
52 16 352 343 346 344 346 3 339 355 21 339 344 345 327 281 279 299 298 355 319 300 272 237 237 305 267 307 359 291 308 328 288 287 343 3 1 307 221 20 27 56 71 45 356 330 332
Wind_Speed_850mb
12 10 8 10 12 13 14 14 15 16 18 19 21 22 24 26 27 29 29 25 27 28 29 22 18 15 15 9 11 12 9 8 9 10 9 9 8 5 2 7 8 6 5 10 17 28 36
9 7 9 9 9 10 12 14 16 18 20 21 23 25 27 28 30 31 31 29 32 34 27 22 16 14 10 6 7 8 10 10 9 10 9 6 5 5 3 4 0 8 19 32 27 20 16
3 5 6 9 12 14 16 19 20 22 23 24 25 27 29 31 32 33 35 33 35 35 25 23 13 11 13 14 9 8 10 11 11 12 8 6 5 3 3 7 7 7 11 15 12 9 10
3 5 9 13 16 19 21 22 24 26 28 29 30 31 31 32 33 33 34 34 36 32 29 17 8 10 8 11 14 16 15 14 12 7 7 7 9 4 4 10 7 4 3 6 6 12 4
9 12 15 18 21 23 25 26 29 31 32 33 33 33 33 33 34 35 36 35 34 27 21 8 11 9 7 8 11 11 16 11 8 7 4 6 2 4 4 4 7 4 7 9 14 19 6
14 16 18 21 23 26 28 30 32 34 35 36 36 35 35 35 33 34 32 35 28 23 6 9 10 8 7 4 5 6 10 12 7 8 8 2 3 4 3 5 9 10 8 10 12 5 8
14 16 18 20 23 26 28 30 33 35 36 37 37 37 34 33 31 31 28 24 13 6 9 21 22 15 9 9 7 6 10 12 11 3 2 2 4 15 19 17 7 5 7 13 9 11 11
17 19 21 23 25 27 29 31 32 34 36 36 37 37 32 30 26 22 16 8 11 16 18 22 18 29 27 10 5 9 14 8 5 6 3 5 14 14 8 11 12 11 7 17 14 8 11
18 20 22 23 25 28 31 32 33 34 36 37 35 34 33 26 21 8 10 10 13 20 10 5 2 2 1 15 8 8 18 6 9 6 11 12 11 8 7 6 7 9 12 10 15 7 9
19 19 21 22 25 28 30 30 31 32 33 34 33 35 32 20 7 9 5 11 14 14 8 6 2 1 3 5 2 10 19 6 6 10 8 12 11 12 13 18 17 12 15 15 8 4 8
17 19 21 23 25 27 28 27 28 30 31 34 33 31 31 18 9 4 7 10 14 6 8 3 2 5 4 4 2 8 20 11 9 6 6 16 5 11 13 17 16 19 8 12 8 8 4
17 19 21 23 24 25 26 26 26 27 29 31 31 28 24 15 6 3 3 6 4 11 9 2 2 3 3 6 5 10 9 16 6 6 7 17 10 8 15 9 14 3 4 4 7 7 3
15 18 20 21 21 21 23 25 27 29 32 32 30 25 22 18 9 4 2 2 10 9 8 10 5 4 5 8 7 12 9 7 9 4 6 9 9 8 7 2 2 5 7 5 6 1 13
14 16 20 20 19 22 25 28 31 33 32 31 25 17 19 20 12 1 5 9 4 7 5 7 11 14 11 7 7 6 5 7 14 6 2 5 20 10 5 12 9 11 13 9 11 6 8
10 15 17 20 25 27 29 30 32 34 34 31 22 11 24 23 12 5 5 7 8 1 6 14 17 8 8 5 8 9 9 9 8 16 14 8 14 4 9 6 10 5 9 5 4 4 5
12 14 20 21 25 29 32 33 33 34 34 29 17 6 29 21 10 4 8 4 3 8 9 7 4 3 6 12 14 14 6 3 5 3 2 9 10 10 6 3 8 10 3 1 2 6 13
13 16 21 26 28 30 32 35 36 33 33 28 12 6 23 13 6 4 6 6 4 9 16 8 6 10 8 9 9 8 11 7 12 14 9 4 8 13 4 12 14 2 6 8 4 8 8
12 18 24 29 31 33 35 36 37 35 30 25 5 5 19 12 6 5 3 8 11 7 14 7 9 6 5 10 10 9 12 7 36 16 12 4 6 11 20 11 8 8 14 14 7 9 7
11 18 26 30 33 34 34 35 35 35 34 26 8 6 16 14 6 5 11 11 8 14 12 10 8 9 7 7 10 7 9 18 52 24 13 11 6 8 16 9 5 6 7 7 1 6 10
13 21 27 29 32 36 37 37 35 31 25 14 6 5 14 21 18 8 6 7 12 25 9 18 9 14 13 9 7 12 15 9 49 41 52 17 7 13 21 8 6 15 11 14 5 4 6
13 19 24 27 31 35 38 39 36 31 20 9 10 6 6 6 12 10 8 10 11 16 21 27 7 18 16 9 13 9 13 26 21 36 23 13 11 11 16 15 11 24 26 21 18 13 17
12 18 21 26 30 34 39 44 47 37 23 20 10 9 8 10 13 7 18 12 14 12 5 6 14 19 10 11 21 36 20 6 14 7 16 13 12 22 31 15 19 31 27 26 25 21 26
12 17 21 25 29 32 37 41 45 48 38 21 16 11 4 14 7 5 3 7 8 16 13 20 26 17 11 16 28 45 51 53 47 43 39 17 8 6 25 7 17 18 14 12 22 26 7
11 14 16 22 24 26 30 33 35 39 43 37 28 15 7 2 5 2 4 9 7 16 12 26 30 13 24 53 57 46 55 62 57 46 48 25 18 13 12 6 13 13 23 31 32 26 28
6 10 15 19 21 24 25 24 25 26 28 28 28 21 6 1 3 5 16 7 25 29 11 19 13 42 39 26 8 12 11 9 9 5 18 20 22 11 8 16 7 8 21 16 12 19 27
6 9 14 17 21 24 23 20 22 20 21 20 23 21 9 2 10 1 5 6 5 5 12 14 47 36 34 7 4 8 7 7 11 21 14 24 10 11 2 10 12 12 19 49 18 8 35
6 9 12 15 15 20 17 17 18 18 19 20 18 15 10 5 4 4 5 9 8 5 6 18 19 22 10 3 6 5 6 4 7 11 13 11 8 8 12 7 10 19 28 15 1 7 36
7 8 9 11 13 14 14 17 19 18 16 20 15 12 9 7 24 6 17 21 19 17 5 17 17 5 7 3 4 7 3 5 6 9 8 8 9 6 6 9 4 50 14 11 12 29 38
7 7 10 12 10 10 4 10 17 17 14 21 21 17 15 13 18 37 13 6 17 28 28 10 9 15 9 3 4 5 7 4 4 4 10 3 8 6 3 4 22 32 29 21 32 34 37
Wind_Direction_850mb
87 77 60 41 31 26 19 15 8 7 2 2 358 355 353 351 352 351 348 342 339 334 324 314 304 296 294 275 261 251 263 285 316 332 349 12 47 22 24 324 328 199 278 277 265 276 280
81 61 44 33 19 6 360 356 355 352 352 350 348 347 345 345 345 345 344 337 333 332 326 318 294 282 269 251 254 255 254 271 302 335 343 7 33 358 313 284 263 317 294 287 291 269 252
66 48 17 359 352 348 349 349 347 345 342 342 341 342 341 341 340 341 338 335 330 329 319 312 291 276 267 255 242 247 248 265 290 315 311 316 324 311 289 302 304 290 316 319 234 253 234
12 360 356 350 346 345 347 345 341 338 337 337 336 336 336 334 335 335 334 333 327 323 319 303 275 284 248 254 252 245 256 250 263 291 306 300 301 269 228 309 314 307 75 344 274 154 231
1 356 349 346 345 341 340 339 336 334 333 330 329 327 326 327 330 332 333 327 323 315 312 278 292 279 277 249 252 256 249 251 256 310 322 297 251 154 149 81 357 338 249 223 303 202 132
9 358 350 344 338 337 335 336 334 331 328 326 326 325 323 323 324 325 331 328 320 311 295 300 280 301 259 295 261 269 211 219 270 300 312 200 102 90 37 115 226 214 231 250 233 237 196
357 345 341 338 337 334 334 334 331 329 329 328 328 327 328 322 322 325 335 340 336 304 304 261 282 275 260 261 266 244 222 228 241 253 278 240 50 222 214 205 209 227 221 245 249 232 208
345 337 334 336 333 332 332 332 331 329 328 326 326 324 325 327 324 325 347 14 1 308 304 298 296 262 242 245 273 231 218 202 180 237 152 17 243 242 234 215 223 234 262 265 280 241 185
336 332 334 332 334 334 335 336 333 332 331 334 336 330 325 316 316 323 2 26 342 335 301 323 3 6 234 226 237 241 199 204 197 225 201 185 234 58 183 227 218 225 216 249 230 327 271
328 336 338 340 340 340 339 342 343 344 343 343 347 343 345 329 306 318 317 339 341 347 44 272 184 123 164 149 206 226 199 216 242 236 215 233 267 220 227 253 177 257 213 230 227 67 245
341 342 346 347 346 345 345 349 350 349 348 345 347 347 345 351 302 269 300 324 335 356 19 291 163 158 174 200 183 207 191 211 230 225 120 251 245 222 221 227 166 235 169 199 192 193 41
347 349 350 349 349 348 351 354 354 351 347 348 348 350 352 354 350 293 303 330 352 44 263 326 68 357 303 208 225 165 193 222 272 283 225 246 283 214 222 228 200 113 274 67 58 114 267
346 346 347 345 352 355 357 355 353 354 351 350 349 357 3 359 342 272 265 33 37 126 290 342 351 338 312 232 233 181 175 186 204 349 274 311 231 249 190 253 230 160 85 300 321 345 234
349 349 340 353 359 4 4 1 358 353 351 346 346 4 10 6 3 78 145 58 143 278 346 358 337 302 229 357 251 191 197 244 235 209 304 209 310 187 176 199 201 189 183 179 236 210 256
354 346 351 1 8 6 6 2 358 353 350 346 342 352 14 11 6 135 115 71 220 292 333 347 330 337 307 3 5 359 221 230 234 172 185 191 265 244 206 238 156 198 191 217 166 90 49
348 358 7 14 13 9 2 1 360 358 352 348 343 15 13 3 21 121 75 239 320 30 348 3 269 336 303 335 348 352 300 286 296 91 166 261 277 216 244 240 243 193 190 104 347 207 247
3 11 15 14 11 11 3 358 360 0 355 350 350 55 5 11 49 40 116 225 326 13 13 352 300 300 291 314 250 253 261 319 3 314 326 290 184 277 110 198 207 169 242 225 184 160 210
17 20 15 13 8 9 6 358 356 356 2 356 21 58 4 357 78 45 67 331 339 357 18 328 334 308 318 332 289 267 246 345 360 322 323 344 257 247 234 248 251 218 219 185 182 219 242
20 21 14 10 8 9 5 3 358 358 1 3 26 358 10 8 80 22 337 344 354 9 18 347 320 33 360 295 313 275 332 23 5 358 14 334 299 314 315 354 308 237 241 220 181 27 202
25 15 15 11 6 6 4 6 4 6 2 22 28 30 29 58 62 85 23 323 343 16 82 351 312 34 355 329 300 307 326 348 339 343 327 309 240 212 256 260 20 292 299 328 294 208 245
19 16 20 13 10 10 10 11 18 20 24 55 58 71 22 353 3 30 8 14 23 15 358 9 30 40 3 300 313 262 330 322 314 312 340 2 263 220 265 279 271 274 285 286 229 235 228
27 27 27 22 19 19 21 21 22 32 37 64 66 43 44 27 359 54 7 22 15 351 297 347 4 331 312 286 284 293 281 250 258 311 339 321 274 328 292 277 270 276 273 261 257 251 251
48 39 29 26 23 20 22 25 25 30 36 72 77 71 97 22 11 56 66 326 335 344 310 3 334 320 309 316 309 298 286 273 259 261 262 250 272 292 270 332 341 298 326 290 72 36 10
55 40 23 17 15 17 19 23 29 34 42 58 61 63 63 43 70 98 297 319 330 335 294 303 302 290 316 315 307 288 283 266 265 262 249 240 214 221 272 231 236 137 42 63 77 45 28
53 15 8 13 19 20 19 20 26 30 40 46 62 68 68 137 288 320 333 324 329 338 308 294 332 313 322 328 301 304 288 318 325 84 33 253 231 245 219 203 262 55 358 340 318 46 11
17 7 16 24 21 16 18 28 23 28 28 34 47 52 102 155 227 243 287 280 279 298 311 286 316 319 313 261 255 270 302 291 307 334 354 24 209 224 225 225 222 355 318 328 166 70 20
42 32 32 28 6 6 22 35 19 19 13 24 32 34 71 280 267 180 271 270 274 258 256 290 325 330 354 296 283 260 265 303 298 326 335 355 11 311 286 287 114 338 349 356 26 37 354
48 32 14 1 359 2 27 8 3 5 10 352 15 26 16 265 298 232 308 283 273 263 219 303 335 325 322 333 316 352 267 286 331 291 320 18 352 11 351 303 245 2 25 53 350 344 341
52 16 352 343 346 344 346 3 339 355 21 339 344 345 327 281 279 299 298 355 319 300 272 237 237 305 267 307 359 291 308 328 288 287 343 3 1 307 221 20 27 56 71 45 356 330 332